[[{"header":{"parameterUnit":"m.s-1","parameterCategory":1,"la1":30.2991,"la2":30.254,"lo1":-89.0895,"lo2":-89.0444,"dy":0.0017,"dx":0.0017,"nx":28,"ny":28,"refTime":"2024-03-23T03:00:00:Z","depth":0,"parameterNumber":2,"parameterNumberName":"U-component_of_WINDS"},"data":[0,0,0,0,0,0,0,0,0,0,0,0,0,0,0,0,0,0,0,0,0,0,0,0,0,0,0,0,0,0,0,0,0,0,0,0,0,0,0,0,0,0,0,0,0,0,0,0,0,0,0,0,0,0,0,0,0,0,-1.7933,-1.7933,0,-1.8021,-1.8022,-1.8023,-1.7964,-1.7962,-1.7959,-1.7956,-1.8052,-1.8057,-1.8062,0,0,0,0,0,0,0,0,0,0,0,0,0,-1.7717,-1.7721,-1.7932,-1.7934,-1.7935,-1.8021,-1.8022,-1.8023,-1.7965,-1.7961,-1.7958,-1.7955,-1.805,-1.8056,-1.8063,0,0,0,0,0,0,0,0,0,0,0,0,0,-1.7808,-1.7722,-1.7932,-1.7916,-1.7915,-1.802,-1.8022,-1.8023,-1.7965,-1.7961,-1.7957,-1.7954,-1.8048,-1.8056,-1.8063,-1.8192,0,0,-1.8087,-1.809,0,0,0,0,0,0,0,0,-1.7803,-1.7816,-1.7917,-1.7917,-1.7917,-1.7977,-1.7981,-1.808,-1.7966,-1.7947,-1.7956,-1.7952,-1.8031,-1.804,-1.8065,-1.8196,-1.82,-1.8087,-1.8092,-1.8095,-1.8097,0,0,0,0,0,0,0,-1.7797,-1.7812,-1.7968,-1.7919,-1.7918,-1.7905,-1.7914,-1.7999,-1.8011,-1.7948,-1.7944,-1.7955,-1.803,-1.8058,-1.8067,-1.8201,-1.8087,-1.8094,-1.8099,-1.8102,-1.8442,-1.8446,0,0,0,0,0,0,-1.7791,-1.7807,-1.7965,-1.797,-1.7849,-1.7912,-1.7922,-1.7962,-1.8009,-1.8013,-1.7958,-1.7952,-1.8047,-1.8058,-1.807,-1.8224,-1.8095,-1.8102,-1.8107,-1.8437,-1.8443,-1.8447,0,0,0,0,0,0,-1.7787,-1.7806,-1.7961,-1.7888,-1.7906,-1.792,-1.7966,-1.7966,-1.7994,-1.8017,-1.8019,-1.7985,-1.8044,-1.806,-1.8161,-1.8227,-1.8106,-1.8113,-1.8432,-1.8439,-1.8445,-1.8533,0,0,0,0,0,0,-1.7781,-1.7805,-1.7853,-1.7889,-1.7911,-1.805,-1.797,-1.7971,-1.8007,-1.7999,-1.8043,-1.8046,-1.8042,-1.815,-1.8169,-1.8235,-1.8119,-1.8426,-1.8435,-1.8443,-1.8524,-1.8541,-1.8556,0,0,0,0,0,-1.7774,-1.7875,-1.7856,-1.7875,-1.7971,-1.8054,-1.8066,-1.8059,-1.8012,-1.8061,-1.8076,-1.8045,-1.8216,-1.8161,-1.8182,-1.8251,-1.8422,-1.8433,-1.8442,-1.8517,-1.8538,-1.8556,0,0,0,0,0,0,-1.7849,-1.788,-1.7859,-1.7975,-1.8012,-1.8044,-1.8106,-1.8081,-1.8134,-1.8125,-1.8115,-1.8125,-1.8232,-1.8251,-1.819,-1.8377,-1.8312,-1.8326,-1.8361,-1.8382,-1.8398,-1.8392,-1.8125,0,0,0,0,0,-1.7878,-1.7942,-1.7966,-1.8066,-1.8086,-1.8093,-1.8129,-1.8119,-1.8158,-1.8174,-1.8196,-1.8236,-1.8299,-1.8341,-1.84,-1.8525,-1.8535,-1.8583,-1.8599,-1.8612,-1.8626,-1.8694,-1.8716,-1.8481,-1.848,-1.848,0,0,-1.7942,-1.7966,-1.8007,-1.8082,-1.811,-1.8177,-1.8106,-1.8181,-1.8231,-1.8186,-1.8283,-1.8301,-1.8345,-1.8459,-1.851,-1.8479,-1.8692,-1.8625,-1.8635,-1.8642,-1.8707,-1.8729,-1.8749,-1.8487,-1.8486,-1.8485,0,0,-1.8091,-1.8115,-1.8201,-1.823,-1.8272,-1.8275,-1.8296,-1.8331,-1.8341,-1.8437,-1.8405,-1.8465,-1.8573,-1.8606,-1.8637,-1.8796,-1.877,-1.8815,-1.8901,-1.8968,-1.8987,-1.9003,-1.9062,-1.9082,-1.8828,-1.8829,-1.8829,0,-1.8165,-1.8264,-1.8249,-1.8326,-1.836,-1.8319,-1.8407,-1.8436,-1.8496,-1.8521,-1.8483,-1.8618,-1.8645,-1.8766,-1.8805,-1.8831,-1.8855,-1.8812,-1.8985,-1.9001,-1.9016,-1.9072,-1.9094,-1.8834,-1.8833,-1.8833,-1.8832,0,-1.8353,-1.8422,-1.8486,-1.8543,-1.8584,-1.8666,-1.8666,-1.8709,-1.8695,-1.8703,-1.8802,-1.8832,-1.8897,-1.8924,-1.8912,-1.9044,-1.9023,-1.8985,-1.892,-1.9044,-1.9097,-1.9118,-1.8842,-1.884,-1.8838,-1.8837,0,0,-1.8556,-1.8601,-1.8626,-1.8651,-1.8693,-1.8747,-1.8826,-1.8887,-1.8926,-1.8967,-1.9036,-1.9127,-1.9091,-1.9126,-1.9117,-1.9175,-1.9301,-1.913,-1.9131,-1.9163,-1.945,-1.948,-1.9505,-1.9282,-1.9286,-1.9289,-1.9447,0,-1.8709,-1.8847,-1.8836,-1.8967,-1.9031,-1.8992,-1.9062,-1.9096,-1.9104,-1.9161,-1.9171,-1.9236,-1.9184,-1.9205,-1.926,-1.9274,-1.9359,-1.9262,-1.9348,-1.9351,-1.9341,-1.9532,-1.9564,-1.9712,-1.9467,-1.947,-1.9473,0,-1.8907,-1.8954,-1.9092,-1.9123,-1.9149,-1.9212,-1.9267,-1.9321,-1.9358,-1.936,-1.9398,-1.9379,-1.9461,-1.939,-1.9504,-1.9438,-1.9472,-1.9484,-1.9489,-1.9499,-1.9422,-1.955,-1.9758,-1.9782,-1.9505,-1.9502,-1.95,0,-1.9044,-1.9141,-1.9236,-1.9258,-1.9297,-1.9342,-1.9361,-1.9394,-1.9431,-1.9479,-1.9503,-1.956,-1.9592,-1.9637,-1.9634,-1.9583,-1.975,-1.9679,-1.9756,-1.9756,-1.9795,-1.9794,-2.0015,-1.9813,-1.9813,-1.9812,-1.9812,0,-1.9218,-1.9304,-1.9298,-1.9357,-1.9452,-1.9437,-1.9532,-1.9546,-1.9575,-1.9637,-1.9606,-1.9664,-1.9655,-1.9714,-1.9712,-1.9807,-1.9821,-1.9827,-1.9826,-1.9831,-1.9831,-1.9855,-1.9846,-1.9818,-1.9817,-1.9816,-1.9815,0,-1.9389,-1.9387,-1.9488,-1.9515,-1.9524,-1.9593,-1.9617,-1.9673,-1.9677,-1.9756,-1.9773,-1.9782,-1.9849,-1.9849,-1.9927,-1.9925,-2.0042,-2.0028,-2.0029,-2.0028,-2.0105,-2.0099,-2.0352,-2.0386,-2.0159,-2.0162,-2.0163,0,-1.9501,-1.9566,-1.96,-1.9637,-1.9658,-1.972,-1.9757,-1.9745,-1.9785,-1.9831,-1.9882,-1.9946,-1.9997,-2.0107,-2.0121,-2.018,-2.0169,-2.0254,-2.0178,-2.0181,-2.0173,-2.017,-2.0177,-2.027,-2.0272,-2.0274,-2.0276,0,-1.9702,-1.9698,-1.9751,-1.9805,-1.9849,-1.9891,-1.993,-1.9963,-1.9955,-2.0001,-2.0069,-2.0108,-2.0186,-2.0251,-2.0307,-2.0328,-2.0302,-2.0299,-2.032,-2.0328,-2.0327,-2.033,-2.0073,-2.0294,-2.0292,-2.0291,-2.029,-2.0289,-1.9849,-1.9905,-1.9936,-1.9997,-2.0024,-2.006,-2.0114,-2.0124,-2.018,-2.0241,-2.023,-2.0307,-2.0342,-2.0415,-2.0439,-2.05,-2.047,-2.0501,-2.0509,-2.0517,-2.0527,-2.0314,-2.051,-2.0509,-2.0509,-2.0508,-2.0508,0,-2.005,-2.0067,-2.0123,-2.0177,-2.0225,-2.0192,-2.0232,-2.0275,-2.0342,-2.0376,-2.0426,-2.0504,-2.0565,-2.0583,-2.0643,-2.0688,-2.0677,-2.0704,-2.0702,-2.0708,-2.0548,-2.0525,-2.0712,-2.0712,-2.0712,-2.0712,-2.0712,-2.0711,-2.016,-2.0253,-2.0252,-2.0358,-2.0375,-2.0448,-2.0474,-2.0508,-2.0535,-2.0622,-2.0673,-2.0683,-2.0711,-2.0772,-2.0828,-2.0831,-2.0856,-2.0888,-2.0887,-2.0739,-2.0719,-2.0699,-2.0677,-2.0893,-2.0893,-2.1042,-2.1043,-2.1044]},{"header":{"parameterUnit":"m.s-1","parameterCategory":1,"la1":30.2991,"la2":30.254,"lo1":-89.0895,"lo2":-89.0444,"dy":0.0017,"dx":0.0017,"nx":28,"ny":28,"refTime":"2024-03-23T03:00:00:Z","depth":0,"parameterNumber":3,"parameterNumberName":"V-component_of_WINDS"},"data":[0,0,0,0,0,0,0,0,0,0,0,0,0,0,0,0,0,0,0,0,0,0,0,0,0,0,0,0,0,0,0,0,0,0,0,0,0,0,0,0,0,0,0,0,0,0,0,0,0,0,0,0,0,0,0,0,0,0,-4.2006,-4.2007,0,-4.2083,-4.2084,-4.2085,-4.2025,-4.2022,-4.2019,-4.2017,-4.2094,-4.2098,-4.2102,0,0,0,0,0,0,0,0,0,0,0,0,0,-4.1801,-4.1805,-4.2006,-4.2007,-4.2008,-4.2083,-4.2084,-4.2085,-4.2025,-4.2022,-4.2019,-4.2016,-4.2092,-4.2097,-4.2103,0,0,0,0,0,0,0,0,0,0,0,0,0,-4.1885,-4.1806,-4.2005,-4.1987,-4.1986,-4.2083,-4.2084,-4.2086,-4.2026,-4.2022,-4.2018,-4.2014,-4.209,-4.2097,-4.2103,-4.2222,0,0,-4.2124,-4.2127,0,0,0,0,0,0,0,0,-4.1881,-4.1893,-4.1988,-4.1988,-4.1987,-4.204,-4.204,-4.2131,-4.2027,-4.201,-4.2017,-4.2012,-4.2079,-4.2086,-4.2109,-4.2226,-4.2229,-4.2124,-4.2129,-4.2131,-4.2133,0,0,0,0,0,0,0,-4.1875,-4.1889,-4.2036,-4.199,-4.1989,-4.1973,-4.1981,-4.2057,-4.2065,-4.2012,-4.2007,-4.2018,-4.2078,-4.2103,-4.2111,-4.223,-4.2124,-4.213,-4.2134,-4.2137,-4.2446,-4.245,0,0,0,0,0,0,-4.1871,-4.1885,-4.2034,-4.2039,-4.1923,-4.198,-4.1988,-4.2027,-4.2064,-4.2066,-4.2021,-4.2014,-4.2093,-4.2103,-4.2113,-4.2254,-4.2131,-4.2138,-4.2141,-4.2442,-4.2447,-4.2452,0,0,0,0,0,0,-4.1867,-4.1885,-4.2031,-4.1961,-4.1978,-4.1987,-4.2031,-4.2031,-4.2056,-4.2071,-4.2072,-4.2045,-4.2091,-4.2104,-4.2195,-4.2256,-4.2141,-4.2147,-4.2437,-4.2444,-4.245,-4.2537,0,0,0,0,0,0,-4.1861,-4.1884,-4.1931,-4.1962,-4.1982,-4.2114,-4.2035,-4.2035,-4.2068,-4.206,-4.2095,-4.2097,-4.2089,-4.2186,-4.2202,-4.2263,-4.2152,-4.2432,-4.244,-4.2448,-4.2529,-4.2546,-4.256,0,0,0,0,0,-4.1854,-4.1952,-4.1933,-4.1952,-4.204,-4.2117,-4.2128,-4.2118,-4.2073,-4.2119,-4.2129,-4.2095,-4.2246,-4.2196,-4.2214,-4.2277,-4.2428,-4.2438,-4.2447,-4.2522,-4.2542,-4.256,0,0,0,0,0,0,-4.1927,-4.1956,-4.1935,-4.2046,-4.208,-4.2107,-4.2165,-4.214,-4.2186,-4.2177,-4.2162,-4.217,-4.2266,-4.228,-4.2224,-4.2393,-4.233,-4.2343,-4.2381,-4.24,-4.2415,-4.241,-4.2157,0,0,0,0,0,-4.1956,-4.2017,-4.2038,-4.2134,-4.2152,-4.2155,-4.2188,-4.2178,-4.2211,-4.2225,-4.2241,-4.2274,-4.2328,-4.2365,-4.2416,-4.253,-4.2536,-4.2582,-4.2598,-4.2611,-4.2623,-4.2682,-4.2703,-4.2483,-4.2483,-4.2483,0,0,-4.2016,-4.2039,-4.2079,-4.2149,-4.2173,-4.2236,-4.2168,-4.2237,-4.2282,-4.2235,-4.2323,-4.2336,-4.2371,-4.2474,-4.2521,-4.2489,-4.2684,-4.2623,-4.2633,-4.2638,-4.2694,-4.2715,-4.2734,-4.2489,-4.2488,-4.2487,0,0,-4.2157,-4.2182,-4.2264,-4.229,-4.2328,-4.2329,-4.2349,-4.238,-4.2386,-4.2474,-4.244,-4.2493,-4.2588,-4.2614,-4.264,-4.2789,-4.276,-4.2806,-4.2887,-4.2946,-4.2963,-4.2978,-4.3031,-4.305,-4.2818,-4.2818,-4.2818,0,-4.2227,-4.2321,-4.2308,-4.238,-4.2411,-4.2371,-4.2453,-4.2478,-4.2531,-4.2553,-4.2517,-4.2634,-4.2655,-4.2763,-4.28,-4.2822,-4.2843,-4.2803,-4.2962,-4.2977,-4.2991,-4.3041,-4.3061,-4.2823,-4.2823,-4.2822,-4.2822,0,-4.2405,-4.247,-4.2531,-4.2584,-4.2621,-4.2698,-4.2695,-4.2735,-4.272,-4.2725,-4.2813,-4.2837,-4.2892,-4.2916,-4.2903,-4.3022,-4.3001,-4.2964,-4.29,-4.3018,-4.3064,-4.3083,-4.2831,-4.2829,-4.2827,-4.2826,0,0,-4.2596,-4.2639,-4.2662,-4.2684,-4.2723,-4.2772,-4.2845,-4.29,-4.2933,-4.297,-4.3031,-4.3111,-4.3076,-4.3105,-4.3094,-4.3145,-4.3261,-4.3101,-4.3102,-4.313,-4.3393,-4.3421,-4.3443,-4.3241,-4.3245,-4.3248,-4.3389,0,-4.2739,-4.2868,-4.2858,-4.298,-4.3039,-4.3,-4.3064,-4.3094,-4.3099,-4.3149,-4.3155,-4.3212,-4.3162,-4.3179,-4.3228,-4.3236,-4.3313,-4.3226,-4.3296,-4.3299,-4.3289,-4.3468,-4.3498,-4.3631,-4.3408,-4.3411,-4.3413,0,-4.2924,-4.2968,-4.3096,-4.3123,-4.3148,-4.3206,-4.3253,-4.3302,-4.3333,-4.3334,-4.3366,-4.3345,-4.3417,-4.3351,-4.3449,-4.339,-4.3418,-4.3426,-4.343,-4.3437,-4.3363,-4.3479,-4.3673,-4.3693,-4.3442,-4.3439,-4.3437,0,-4.305,-4.3141,-4.3228,-4.3249,-4.3284,-4.3325,-4.3341,-4.3369,-4.3402,-4.3443,-4.3463,-4.3512,-4.3539,-4.3576,-4.3568,-4.3521,-4.3668,-4.3602,-4.367,-4.367,-4.3703,-4.3701,-4.3905,-4.3721,-4.3721,-4.372,-4.372,0,-4.3211,-4.3291,-4.3285,-4.334,-4.3427,-4.3413,-4.3499,-4.351,-4.3535,-4.3589,-4.3558,-4.361,-4.3596,-4.3646,-4.364,-4.3722,-4.3734,-4.3736,-4.3733,-4.3739,-4.3739,-4.3757,-4.3747,-4.3726,-4.3724,-4.3723,-4.3722,0,-4.3367,-4.3367,-4.346,-4.3485,-4.3493,-4.3556,-4.3577,-4.3627,-4.3629,-4.3698,-4.3714,-4.3718,-4.3775,-4.3771,-4.3835,-4.3831,-4.3932,-4.3918,-4.3921,-4.3919,-4.3986,-4.398,-4.4209,-4.4238,-4.4036,-4.4038,-4.4039,0,-4.347,-4.3531,-4.3562,-4.3596,-4.3616,-4.3672,-4.3705,-4.3692,-4.3728,-4.3767,-4.3812,-4.3867,-4.391,-4.4003,-4.4011,-4.406,-4.4047,-4.4124,-4.4054,-4.4057,-4.4048,-4.4044,-4.405,-4.4138,-4.414,-4.4142,-4.4143,0,-4.3653,-4.365,-4.3699,-4.3748,-4.3789,-4.3827,-4.3861,-4.389,-4.3882,-4.3922,-4.3981,-4.4015,-4.408,-4.4134,-4.418,-4.4195,-4.4168,-4.4165,-4.4183,-4.419,-4.4189,-4.419,-4.3959,-4.416,-4.4158,-4.4157,-4.4156,-4.4155,-4.3786,-4.3837,-4.3867,-4.3922,-4.3947,-4.3979,-4.4027,-4.4036,-4.4085,-4.4138,-4.4127,-4.4193,-4.422,-4.4279,-4.4299,-4.4349,-4.4321,-4.4347,-4.4354,-4.4361,-4.4368,-4.4181,-4.4357,-4.4356,-4.4356,-4.4355,-4.4355,0,-4.3966,-4.3983,-4.4035,-4.4084,-4.4127,-4.4098,-4.4134,-4.4171,-4.423,-4.4259,-4.4302,-4.4368,-4.442,-4.4431,-4.448,-4.4518,-4.4507,-4.4531,-4.4529,-4.4532,-4.4391,-4.437,-4.454,-4.454,-4.454,-4.454,-4.454,-4.454,-4.4066,-4.4151,-4.4151,-4.4246,-4.4262,-4.4327,-4.435,-4.4379,-4.4402,-4.4478,-4.4521,-4.4528,-4.4549,-4.4599,-4.4645,-4.4647,-4.4666,-4.4696,-4.4693,-4.4561,-4.4542,-4.4525,-4.4505,-4.47,-4.4701,-4.483,-4.4831,-4.4832]}]]